THORAD AGENA D DEB, 4683

Orbit data source: Space-Track

THORAD AGENA D DEB, 4683 is space debris in SSO originally from a launch on Wed, 08 Apr 1970 UTC launched from the Air Force Western Test Range (AFWTR). Debris objects in space refer to the collection of defunct objects orbiting the Earth. Examples of debris include non-operational satellites, rocket bodies, and fragments generated from explosions, collisions, or faulty payload assembly.

Loading next visibility...
Identifier
4683, 1970-025BG
Orbit
SSO
Country
Flag of USUS
Related business
Manufacturer
Unknown
Mission
Spacecraft
Bus & Motor
Unknown
Mass
Unknown
Launch date (UTC)
1970-04-08 (56 years ago)
Launch vehicle
Unknown
Launch site
Air Force Western Test Range (AFWTR)
Object type
Payload
Rocket body
Debris
Shape & HBR
Unknown shape, 0.1 m
Radar Cross Section
Medium (>0.1 m² and <1 m²)

Expand to show TLE details & history
Last TLE update: 3 days ago

TLE from 3 days ago
0 THORAD AGENA D DEB
1 04683U 70025BG  26206.08259785  .00000129  00000-0  33371-3 0  9997
2 04683 100.4126 248.2731 0121352   3.0311  53.0407 13.35031449732549
Epoch: 2026-07-25T01:58Z
TLE epoch observation values (Epoch: 2026-07-25T01:58:56.454Z)
Latitude
55.85511°
Longitude
-99.90045°
Altitude
1,082.957 km
Speed
7.342 km/s
True Right ascension
15h 30m 32s
True Declination
55° 42' 08"
Sunlit
Object was in daylight at epoch
Visualization orbit readout
Latitude
Unknown
Longitude
Unknown
Altitude
Unknown
Speed
Unknown
Apparent Right ascension
Unknown
Apparent Declination
Unknown
Sunlit
N/A
Visualization observer readout
Local Sidereal Time
03:53:06
Azimuth
Unknown
Elevation
Unknown
Doppler factor
Unknown
Orbital elements
Apogee altitude
1,216.258 km
Perigee altitude
1,034.149 km
Semi-major axis
7,503.34 km
Eccentricity
0.01214
Inclination
100.4126°
RAAN
248.2731°
Arg. of periapsis
3.0311°
True anomaly
54.16202°
Mean anomaly
53.0407°
Eccentric anomaly
53.60034°
Mean motion
3.33934 °/min
Orbital period
107.81 mins
BSTAR
0.00033371
Loading maneuver chart data...
Computing Atmospheric mass density...

Documentation

Showing up to 5 results
|